CW8845 Weather Reports


Display with metric or nautical units.
time (UTC)temp
F
wind
direction
speed
MPH
gust
MPH
rain 1hr
in
rain 24hr
in
rain mn
in
humidity
%
barometer
mb
20260831005624 76 5 6.0 10.0 0.00 0.02 0.00 25 1015.6
20260831004612 76 360 3.0 8.0 0.00 0.02 0.00 26 1015.7
20260831003626 76 344 4.0 8.0 0.00 0.02 0.00 26 1015.8
20260831002638 76 308 1.0 6.0 0.00 0.02 0.00 26 1016.0
20260831001626 77 351 3.0 9.0 0.00 0.02 0.00 24 1015.9
20260831000617 77 16 3.0 8.0 0.00 0.02 0.00 24 1016.0
20260830235622 77 336 2.0 8.0 0.00 0.02 0.00 24 1016.0
20260830234612 77 5 4.0 9.0 0.00 0.02 0.00 23 1015.9
20260830233641 77 53 3.0 8.0 0.00 0.02 0.00 23 1015.9
20260830232629 77 304 3.0 8.0 0.00 0.02 0.00 24 1015.9
20260830231624 77 360 2.0 7.0 0.00 0.02 0.00 25 1016.0
20260830230634 77 291 2.0 9.0 0.00 0.02 0.00 24 1015.9
20260830225616 78 17 5.0 9.0 0.00 0.02 0.00 24 1015.9
20260830224626 78 345 5.0 9.0 0.00 0.02 0.00 23 1016.1
20260830223639 78 338 7.0 13.0 0.00 0.02 0.00 25 1016.1
20260830222627 77 283 2.0 10.0 0.00 0.02 0.00 25 1016.2
20260830221637 77 346 4.0 11.0 0.00 0.02 0.00 25 1016.2
20260830220646 77 292 4.0 13.0 0.00 0.02 0.00 24 1016.4
20260830215626 77 301 4.0 9.0 0.00 0.02 0.00 25 1016.5
20260830214621 77 315 4.0 10.0 0.00 0.02 0.00 26 1016.6
20260830213632 77 320 6.0 10.0 0.00 0.02 0.00 26 1016.6
20260830212621 77 24 3.0 12.0 0.00 0.02 0.00 26 1016.6
20260830211616 77 340 4.0 9.0 0.00 0.02 0.00 27 1016.7
20260830210625 77 295 4.0 9.0 0.00 0.02 0.00 28 1016.8
20260830205626 76 60 4.0 9.0 0.00 0.02 0.00 28 1016.8
20260830204617 76 344 3.0 10.0 0.00 0.02 0.00 28 1017.0
20260830203647 76 320 2.0 11.0 0.00 0.02 0.00 28 1017.0
20260830202619 76 306 3.0 7.0 0.00 0.02 0.00 28 1017.0
20260830201629 75 284 1.0 4.0 0.00 0.02 0.00 28 1017.1
20260830200621 75 355 2.0 6.0 0.00 0.02 0.00 29 1017.1
20260830195627 75 286 2.0 5.0 0.00 0.02 0.00 30 1017.2
20260830194616 74 346 2.0 9.0 0.00 0.02 0.00 29 1017.3
20260830193626 74 360 3.0 6.0 0.00 0.02 0.00 29 1017.3
20260830192616 73 355 5.0 9.0 0.00 0.02 0.00 30 1017.4
20260830191631 73 42 3.0 9.0 0.00 0.02 0.00 30 1017.4
20260830190622 73 298 2.0 10.0 0.00 0.02 0.00 29 1017.4
20260830185645 73 30 3.0 7.0 0.00 0.02 0.00 29 1017.5
20260830184615 72 18 3.0 8.0 0.00 0.02 0.00 29 1017.5
20260830183651 72 326 3.0 6.0 0.00 0.02 0.00 30 1017.6
20260830182620 71 5 6.0 11.0 0.00 0.02 0.00 30 1017.6
20260830181612 71 5 5.0 9.0 0.00 0.02 0.00 30 1017.7
20260830180629 70 23 5.0 11.0 0.00 0.02 0.00 30 1017.6
20260830175631 70 30 6.0 11.0 0.00 0.02 0.00 29 1017.6
20260830174627 70 346 6.0 12.0 0.00 0.02 0.00 31 1017.7
20260830173618 69 5 6.0 11.0 0.00 0.02 0.00 32 1017.7
20260830172629 69 16 4.0 11.0 0.00 0.02 0.00 33 1017.7
20260830171622 68 5 4.0 11.0 0.00 0.02 0.00 34 1017.8
20260830170612 67 5 4.0 13.0 0.00 0.02 0.00 34 1017.8
20260830165636 67 34 5.0 11.0 0.00 0.02 0.00 35 1017.8
20260830164625 66 329 5.0 11.0 0.00 0.02 0.00 35 1017.8
20260830163636 66 5 5.0 12.0 0.00 0.02 0.00 37 1017.7
20260830162649 66 22 7.0 14.0 0.00 0.02 0.00 37 1017.7
20260830161619 65 360 4.0 13.0 0.00 0.02 0.00 40 1017.6
20260830160651 64 36 7.0 12.0 0.00 0.02 0.00 41 1017.6
20260830155612 64 12 6.0 14.0 0.00 0.02 0.00 44 1017.6
20260830154626 63 12 5.0 15.0 0.00 0.02 0.00 46 1017.6
20260830153616 63 5 6.0 15.0 0.00 0.02 0.00 48 1017.6
20260830152626 62 9 8.0 16.0 0.00 0.02 0.00 52 1017.5
20260830151616 61 24 7.0 12.0 0.00 0.02 0.00 58 1017.4
20260830150612 60 5 4.0 10.0 0.00 0.02 0.00 65 1017.4
20260830145612 59 16 5.0 9.0 0.00 0.02 0.00 67 1017.4
20260830144642 58 16 4.0 9.0 0.00 0.02 0.00 70 1017.4
20260830143631 58 20 4.0 6.0 0.00 0.02 0.00 74 1017.3
20260830142624 58 24 3.0 8.0 0.00 0.02 0.00 77 1017.3
20260830141635 57 5 2.0 6.0 0.00 0.02 0.00 80 1017.1
20260830140624 57 9 4.0 6.0 0.00 0.02 0.00 83 1016.8
20260830135648 57 9 3.0 6.0 0.00 0.02 0.00 85 1016.7
20260830134621 57 341 4.0 8.0 0.00 0.02 0.00 86 1016.6
20260830133611 57 17 2.0 4.0 0.00 0.02 0.00 86 1016.6
20260830132622 57 17 1.0 3.0 0.00 0.02 0.00 86 1016.6
20260830131635 56 17 0.0 2.0 0.00 0.02 0.00 86 1016.3
20260830130649 57 17 1.0 3.0 0.00 0.02 0.00 86 1016.4
20260830125651 56 17 0.0 4.0 0.00 0.02 0.00 86 1016.3
20260830124621 56 17 2.0 5.0 0.00 0.02 0.00 85 1015.9
20260830123633 57 360 1.0 4.0 0.00 0.02 0.00 85 1016.0
20260830122645 57 360 0.0 3.0 0.00 0.02 0.00 85 1015.9
20260830121618 57 360 3.0 4.0 0.00 0.02 0.00 84 1015.5
20260830120631 57 360 0.0 0.0 0.00 0.02 0.00 85 1015.4
20260830115614 58 360 0.0 0.0 0.00 0.02 0.00 84 1015.3
20260830114626 58 360 0.0 0.0 0.00 0.02 0.00 85 1015.3
20260830113621 57 360 0.0 0.0 0.00 0.02 0.00 85 1015.3
20260830112633 57 360 0.0 2.0 0.00 0.02 0.00 86 1015.3
20260830111644 57 360 0.0 0.0 0.00 0.02 0.00 86 1015.3
20260830110614 57 360 0.0 4.0 0.00 0.02 0.00 85 1015.2
20260830105621 57 360 3.0 4.0 0.00 0.02 0.00 85 1015.2
20260830104613 57 355 1.0 2.0 0.00 0.02 0.00 85 1015.0
20260830103624 57 355 0.0 0.0 0.00 0.02 0.00 85 1014.9
20260830102615 57 355 0.0 2.0 0.00 0.02 0.00 85 1014.6
20260830101652 57 355 0.0 3.0 0.00 0.02 0.00 85 1014.6
20260830100622 57 355 0.0 3.0 0.00 0.02 0.00 84 1014.6
20260830095626 57 360 0.0 0.0 0.00 0.02 0.00 85 1014.7
20260830094639 57 360 0.0 0.0 0.00 0.02 0.00 85 1014.7
20260830093613 57 360 0.0 4.0 0.00 0.02 0.00 85 1014.5
20260830092625 57 360 3.0 4.0 0.00 0.02 0.00 85 1014.5
20260830091616 57 360 0.0 4.0 0.00 0.02 0.00 85 1014.6
20260830090612 57 360 1.0 4.0 0.00 0.02 0.00 85 1014.5
20260830085615 57 360 1.0 3.0 0.00 0.02 0.00 85 1014.5
20260830084628 57 360 1.0 3.0 0.00 0.02 0.00 84 1014.5
20260830083619 57 360 1.0 5.0 0.00 0.02 0.00 85 1014.7
20260830082614 57 5 5.0 9.0 0.00 0.02 0.00 85 1014.8
20260830081626 57 17 6.0 10.0 0.00 0.02 0.00 85 1014.7
20260830080616 57 355 3.0 4.0 0.00 0.02 0.00 85 1014.5
20260830075619 57 30 3.0 5.0 0.00 0.02 0.00 85 1014.5
20260830074636 57 15 0.0 3.0 0.00 0.02 0.00 84 1014.6
20260830073626 57 13 2.0 5.0 0.00 0.02 0.00 83 1014.5
20260830072617 57 346 3.0 5.0 0.00 0.02 0.00 83 1014.6
20260830071630 58 61 3.0 5.0 0.00 0.02 0.00 82 1014.7
20260830070624 58 15 3.0 6.0 0.00 0.02 0.00 81 1014.8
20260830065626 58 34 1.0 6.0 0.00 0.02 0.00 80 1014.6
20260830064618 58 355 3.0 5.0 0.00 0.02 0.00 80 1014.7
20260830063613 58 350 1.0 6.0 0.00 0.02 0.00 80 1014.8
20260830062624 58 16 3.0 5.0 0.00 0.02 0.00 80 1014.7
20260830061615 58 35 4.0 8.0 0.00 0.02 0.00 79 1014.7
20260830060631 59 12 2.0 5.0 0.00 0.02 0.00 78 1014.9
20260830055614 59 48 3.0 6.0 0.00 0.03 0.02 77 1014.8
20260830054629 59 14 1.0 6.0 0.00 0.03 0.02 78 1015.0
20260830053622 59 10 1.0 5.0 0.00 0.03 0.02 78 1014.9
20260830052614 60 360 2.0 4.0 0.00 0.03 0.02 78 1015.0
20260830051625 60 330 1.0 3.0 0.00 0.03 0.02 79 1015.0
20260830050620 60 330 0.0 2.0 0.00 0.03 0.02 77 1014.9
20260830045624 60 330 0.0 2.0 0.00 0.03 0.02 77 1015.1
20260830044614 60 330 1.0 3.0 0.01 0.03 0.02 77 1015.2
20260830043646 59 5 1.0 5.0 0.02 0.03 0.02 77 1015.4
20260830042640 59 110 4.0 8.0 0.02 0.03 0.02 76 1015.2
20260830041652 60 25 1.0 9.0 0.02 0.03 0.02 74 1016.3
20260830040622 60 5 5.0 14.0 0.02 0.03 0.02 72 1015.8
20260830035626 64 306 10.0 16.0 0.02 0.03 0.02 69 1015.6
20260830034621 66 318 3.0 8.0 0.00 0.01 0.00 68 1015.5
20260830033652 66 217 2.0 8.0 0.00 0.01 0.00 68 1014.4
20260830032623 64 351 0.0 2.0 0.00 0.01 0.00 69 1013.8
20260830031614 64 350 0.0 3.0 0.00 0.01 0.00 69 1013.5
20260830030630 64 350 1.0 5.0 0.00 0.01 0.00 69 1013.6
20260830025613 65 350 1.0 8.0 0.00 0.02 0.00 67 1013.7
20260830024623 66 5 4.0 10.0 0.00 0.02 0.00 66 1013.9
20260830023614 67 344 2.0 8.0 0.00 0.02 0.00 63 1014.1